Private Wetterstation Wechselburg
Wetterdaten: Dienstag, 10.05.2011
Datum Zeit Temp. +2m Bodentemp. Temp.+5cm Temp. Wind Windchill X Diff Temp. Feuchte +2m Feuchte +5cm Sonnenschein Luftdruck Regen Wind Richtung Richtung Sonnenschein UV Taupunkt Windchill Windben
10.05.2011 00:00 13,0 C 17,9 C 10,8 C 11,3 C 7,9 C 0,0 C 56 % 64 % 0 % 1027,4 hPa 0,0 l/m 0,0 km/h (0 Bft) SW 225 0 min 0,0 UV-I 4,4 C 7,9 C 0,0 km/h (0 Bft)
10.05.2011 00:09 12,9 C 17,8 C 10,6 C 11,2 C 7,7 C 0,0 C 58 % 66 % 0 % 1027,4 hPa 0,0 l/m 0,0 km/h (0 Bft) N 0 0 min 0,0 UV-I 4,8 C 7,7 C 0,0 km/h (0 Bft)
10.05.2011 00:15 12,8 C 17,8 C 10,5 C 11,0 C 7,4 C 0,0 C 58 % 66 % 0 % 1027,6 hPa 0,0 l/m 0,0 km/h (0 Bft) O-NO 67 0 min 0,0 UV-I 4,7 C 7,4 C 0,0 km/h (0 Bft)
10.05.2011 00:20 12,6 C 17,8 C 10,4 C 10,9 C 7,5 C 0,0 C 58 % 66 % 0 % 1027,6 hPa 0,0 l/m 0,0 km/h (0 Bft) N 360 0 min 0,0 UV-I 4,6 C 7,5 C 0,0 km/h (0 Bft)
10.05.2011 00:25 12,4 C 17,7 C 10,3 C 10,7 C 7,4 C 0,0 C 59 % 67 % 0 % 1027,6 hPa 0,0 l/m 0,0 km/h (0 Bft) O 90 0 min 0,0 UV-I 4,6 C 7,4 C 0,0 km/h (0 Bft)
10.05.2011 00:30 12,5 C 17,7 C 10,3 C 10,8 C 7,3 C 0,0 C 59 % 67 % 0 % 1027,6 hPa 0,0 l/m 0,0 km/h (0 Bft) O-SO 112 0 min 0,0 UV-I 4,7 C 7,3 C 0,0 km/h (0 Bft)
10.05.2011 00:35 12,3 C 17,7 C 10,0 C 10,6 C 7,3 C 0,0 C 59 % 67 % 0 % 1027,8 hPa 0,0 l/m 0,0 km/h (0 Bft) NO 45 0 min 0,0 UV-I 4,5 C 7,3 C 0,0 km/h (0 Bft)
10.05.2011 00:40 12,2 C 17,7 C 10,1 C 10,5 C 7,2 C 0,0 C 60 % 68 % 0 % 1027,8 hPa 0,0 l/m 0,0 km/h (0 Bft) S-SO 157 0 min 0,0 UV-I 4,7 C 7,2 C 0,0 km/h (0 Bft)
10.05.2011 00:45 12,1 C 17,7 C 9,9 C 10,4 C 7,1 C 0,0 C 59 % 68 % 0 % 1027,8 hPa 0,0 l/m 0,0 km/h (0 Bft) O-NO 67 0 min 0,0 UV-I 4,3 C 7,1 C 0,0 km/h (0 Bft)
10.05.2011 00:50 11,8 C 17,7 C 9,7 C 10,3 C 7,2 C 0,0 C 60 % 68 % 0 % 1027,8 hPa 0,0 l/m 0,0 km/h (0 Bft) NO 45 0 min 0,0 UV-I 4,3 C 7,2 C 0,0 km/h (0 Bft)
10.05.2011 00:55 11,7 C 17,7 C 9,7 C 10,2 C 7,2 C 0,0 C 62 % 70 % 0 % 1027,5 hPa 0,0 l/m 0,0 km/h (0 Bft) SW 225 0 min 0,0 UV-I 4,7 C 7,2 C 0,0 km/h (0 Bft)
10.05.2011 01:00 11,9 C 17,7 C 9,7 C 10,3 C 7,0 C 0,0 C 61 % 70 % 0 % 1027,5 hPa 0,0 l/m 0,2 km/h (0 Bft) W 270 0 min 0,0 UV-I 4,6 C 7,0 C 0,0 km/h (0 Bft)
10.05.2011 01:08 11,6 C 17,7 C 9,5 C 9,9 C 6,6 C 0,0 C 62 % 70 % 0 % 1027,5 hPa 0,0 l/m 0,0 km/h (0 Bft) N 0 0 min 0,0 UV-I 4,6 C 6,6 C 0,0 km/h (0 Bft)
10.05.2011 01:15 11,5 C 17,6 C 9,3 C 9,8 C 6,5 C 0,0 C 62 % 70 % 0 % 1027,3 hPa 0,0 l/m 0,0 km/h (0 Bft) NW 315 0 min 0,0 UV-I 4,5 C 6,5 C 0,0 km/h (0 Bft)
10.05.2011 01:20 11,3 C 17,6 C 9,3 C 9,7 C 6,5 C 0,0 C 63 % 71 % 0 % 1027,3 hPa 0,0 l/m 0,0 km/h (0 Bft) NW 315 0 min 0,0 UV-I 4,5 C 6,5 C 0,0 km/h (0 Bft)
10.05.2011 01:25 11,3 C 17,6 C 9,2 C 9,7 C 6,4 C 0,0 C 63 % 72 % 0 % 1027,3 hPa 0,0 l/m 0,0 km/h (0 Bft) W-SW 247 0 min 0,0 UV-I 4,5 C 6,4 C 0,0 km/h (0 Bft)
10.05.2011 01:30 11,3 C 17,6 C 9,3 C 9,6 C 6,3 C 0,0 C 63 % 72 % 0 % 1027,3 hPa 0,0 l/m 0,2 km/h (0 Bft) NW 315 0 min 0,0 UV-I 4,5 C 6,3 C 0,0 km/h (0 Bft)
10.05.2011 01:35 11,2 C 17,6 C 9,0 C 9,5 C 6,2 C 0,0 C 63 % 72 % 0 % 1027,3 hPa 0,0 l/m 0,2 km/h (0 Bft) NW 315 0 min 0,0 UV-I 4,4 C 6,2 C 1,8 km/h (1 Bft)
10.05.2011 01:40 11,1 C 17,5 C 8,9 C 9,4 C 6,1 C 0,0 C 64 % 72 % 0 % 1027,3 hPa 0,0 l/m 0,0 km/h (0 Bft) NW 315 0 min 0,0 UV-I 4,6 C 6,1 C 0,0 km/h (0 Bft)
10.05.2011 01:45 11,1 C 17,5 C 8,8 C 9,4 C 6,0 C 0,0 C 64 % 73 % 0 % 1027,3 hPa 0,0 l/m 0,0 km/h (0 Bft) W-SW 247 0 min 0,0 UV-I 4,6 C 6,0 C 1,9 km/h (1 Bft)
10.05.2011 01:50 11,1 C 17,5 C 8,8 C 9,4 C 5,9 C 0,0 C 64 % 73 % 0 % 1027,3 hPa 0,0 l/m 0,0 km/h (0 Bft) W-SW 247 0 min 0,0 UV-I 4,6 C 5,9 C 0,0 km/h (0 Bft)
10.05.2011 01:55 10,7 C 17,5 C 8,7 C 9,1 C 5,9 C 0,0 C 64 % 73 % 0 % 1027,1 hPa 0,0 l/m 0,0 km/h (0 Bft) W 270 0 min 0,0 UV-I 4,2 C 5,9 C 0,0 km/h (0 Bft)
10.05.2011 02:00 10,4 C 17,5 C 8,5 C 8,9 C 5,9 C 0,0 C 65 % 73 % 0 % 1027,1 hPa 0,0 l/m 0,0 km/h (0 Bft) O-SO 112 0 min 0,0 UV-I 4,1 C 5,9 C 0,0 km/h (0 Bft)
10.05.2011 02:10 10,7 C 17,4 C 8,5 C 9,1 C 5,9 C 0,0 C 66 % 75 % 0 % 1027,1 hPa 0,0 l/m 0,2 km/h (0 Bft) N 0 0 min 0,0 UV-I 4,6 C 5,9 C 0,0 km/h (0 Bft)
10.05.2011 02:15 10,5 C 17,4 C 8,4 C 8,9 C 5,6 C 0,0 C 66 % 75 % 0 % 1027,2 hPa 0,0 l/m 0,2 km/h (0 Bft) SW 225 0 min 0,0 UV-I 4,4 C 5,6 C 0,0 km/h (0 Bft)
10.05.2011 02:20 10,4 C 17,4 C 8,3 C 8,8 C 5,5 C 0,0 C 66 % 74 % 0 % 1027,2 hPa 0,0 l/m 0,0 km/h (0 Bft) NW 315 0 min 0,0 UV-I 4,3 C 5,5 C 0,0 km/h (0 Bft)
10.05.2011 02:25 10,0 C 17,4 C 8,0 C 8,5 C 5,5 C 0,0 C 67 % 75 % 0 % 1027,2 hPa 0,0 l/m 0,0 km/h (0 Bft) NW 315 0 min 0,0 UV-I 4,2 C 5,5 C 0,0 km/h (0 Bft)
10.05.2011 02:30 10,1 C 17,3 C 8,1 C 8,5 C 5,4 C 0,0 C 67 % 75 % 0 % 1027,2 hPa 0,0 l/m 0,0 km/h (0 Bft) NW 315 0 min 0,0 UV-I 4,3 C 5,4 C 0,0 km/h (0 Bft)
10.05.2011 02:35 10,0 C 17,3 C 8,0 C 8,5 C 5,4 C 0,0 C 67 % 75 % 0 % 1027,2 hPa 0,0 l/m 0,0 km/h (0 Bft) NW 315 0 min 0,0 UV-I 4,2 C 5,4 C 0,0 km/h (0 Bft)
10.05.2011 02:40 10,0 C 17,3 C 8,1 C 8,5 C 5,4 C 0,0 C 68 % 76 % 0 % 1027,2 hPa 0,0 l/m 0,2 km/h (0 Bft) W-SW 247 0 min 0,0 UV-I 4,4 C 5,4 C 0,0 km/h (0 Bft)
10.05.2011 02:45 10,2 C 17,3 C 8,0 C 8,6 C 5,4 C 0,0 C 68 % 76 % 0 % 1027,2 hPa 0,0 l/m 0,2 km/h (0 Bft) W-SW 247 0 min 0,0 UV-I 4,6 C 5,4 C 0,0 km/h (0 Bft)
10.05.2011 02:50 10,1 C 17,3 C 8,0 C 8,5 C 5,4 C 0,0 C 68 % 76 % 0 % 1027,2 hPa 0,0 l/m 0,0 km/h (0 Bft) S-SW 202 0 min 0,0 UV-I 4,5 C 5,4 C 0,0 km/h (0 Bft)
10.05.2011 02:55 10,0 C 17,2 C 7,9 C 8,4 C 5,2 C 0,0 C 68 % 76 % 0 % 1027,4 hPa 0,0 l/m 0,0 km/h (0 Bft) W 270 0 min 0,0 UV-I 4,4 C 5,2 C 0,0 km/h (0 Bft)
10.05.2011 03:00 9,9 C 17,2 C 7,9 C 8,3 C 5,1 C 0,0 C 68 % 76 % 0 % 1027,4 hPa 0,0 l/m 0,0 km/h (0 Bft) NW 315 0 min 0,0 UV-I 4,3 C 5,1 C 0,0 km/h (0 Bft)
10.05.2011 03:10 9,8 C 17,2 C 7,9 C 8,2 C 5,0 C 0,0 C 69 % 77 % 0 % 1027,4 hPa 0,0 l/m 0,0 km/h (0 Bft) N 0 0 min 0,0 UV-I 4,4 C 5,0 C 0,0 km/h (0 Bft)
10.05.2011 03:15 9,5 C 17,2 C 7,6 C 8,0 C 5,0 C 0,0 C 69 % 77 % 0 % 1027,3 hPa 0,0 l/m 0,0 km/h (0 Bft) W-NW 292 0 min 0,0 UV-I 4,1 C 5,0 C 0,0 km/h (0 Bft)
10.05.2011 03:20 9,5 C 17,2 C 7,6 C 8,0 C 4,9 C 0,0 C 69 % 77 % 0 % 1027,3 hPa 0,0 l/m 0,0 km/h (0 Bft) W-NW 292 0 min 0,0 UV-I 4,1 C 4,9 C 0,0 km/h (0 Bft)
10.05.2011 03:25 9,3 C 17,2 C 7,5 C 7,8 C 4,8 C 0,0 C 69 % 77 % 0 % 1027,3 hPa 0,0 l/m 0,0 km/h (0 Bft) W-NW 292 0 min 0,0 UV-I 3,9 C 4,8 C 0,0 km/h (0 Bft)
10.05.2011 03:30 9,3 C 17,1 C 7,5 C 7,8 C 4,7 C 0,0 C 70 % 77 % 0 % 1027,3 hPa 0,0 l/m 0,0 km/h (0 Bft) W-NW 292 0 min 0,0 UV-I 4,1 C 4,7 C 0,0 km/h (0 Bft)
10.05.2011 03:35 9,3 C 17,1 C 7,4 C 7,7 C 4,6 C 0,0 C 70 % 77 % 0 % 1027,2 hPa 0,0 l/m 0,0 km/h (0 Bft) W-NW 292 0 min 0,0 UV-I 4,1 C 4,6 C 0,0 km/h (0 Bft)
10.05.2011 03:40 9,2 C 17,1 C 7,5 C 7,7 C 4,6 C 0,0 C 70 % 77 % 0 % 1027,2 hPa 0,0 l/m 0,0 km/h (0 Bft) W-NW 292 0 min 0,0 UV-I 4,0 C 4,6 C 0,0 km/h (0 Bft)
10.05.2011 03:45 8,9 C 17,1 C 7,2 C 7,5 C 4,8 C 0,0 C 70 % 78 % 0 % 1027,2 hPa 0,0 l/m 0,0 km/h (0 Bft) NO 45 0 min 0,0 UV-I 3,7 C 4,8 C 0,0 km/h (0 Bft)
10.05.2011 03:50 8,9 C 17,0 C 7,2 C 7,6 C 4,9 C 0,0 C 71 % 78 % 0 % 1027,2 hPa 0,0 l/m 0,0 km/h (0 Bft) NO 45 0 min 0,0 UV-I 3,9 C 4,9 C 0,0 km/h (0 Bft)
10.05.2011 03:55 9,2 C 17,0 C 7,3 C 7,7 C 4,8 C 0,0 C 71 % 79 % 0 % 1027,3 hPa 0,0 l/m 0,0 km/h (0 Bft) W-NW 292 0 min 0,0 UV-I 4,2 C 4,8 C 0,0 km/h (0 Bft)
10.05.2011 04:00 9,1 C 17,0 C 7,3 C 7,7 C 4,8 C 0,0 C 71 % 79 % 0 % 1027,3 hPa 0,0 l/m 0,0 km/h (0 Bft) N-NW 337 0 min 0,0 UV-I 4,1 C 4,8 C 0,0 km/h (0 Bft)
10.05.2011 04:10 9,1 C 17,1 C 7,2 C 7,6 C 4,5 C 0,0 C 71 % 79 % 0 % 1027,3 hPa 0,0 l/m 0,0 km/h (0 Bft) N 0 0 min 0,0 UV-I 4,1 C 4,5 C 0,0 km/h (0 Bft)
10.05.2011 04:15 9,0 C 17,0 C 7,2 C 7,5 C 4,4 C 0,0 C 71 % 79 % 0 % 1027,3 hPa 0,0 l/m 0,2 km/h (0 Bft) SW 225 0 min 0,0 UV-I 4,0 C 4,4 C 0,0 km/h (0 Bft)
10.05.2011 04:20 8,9 C 17,0 C 7,2 C 7,4 C 4,3 C 0,0 C 71 % 79 % 0 % 1027,3 hPa 0,0 l/m 0,2 km/h (0 Bft) SW 225 0 min 0,0 UV-I 3,9 C 4,3 C 0,0 km/h (0 Bft)
10.05.2011 04:25 8,9 C 17,0 C 7,1 C 7,3 C 4,1 C 0,0 C 72 % 79 % 0 % 1027,3 hPa 0,0 l/m 0,0 km/h (0 Bft) S-SW 202 0 min 0,0 UV-I 4,1 C 4,1 C 1,6 km/h (1 Bft)
10.05.2011 04:30 8,8 C 17,0 C 7,1 C 7,2 C 4,1 C 0,0 C 72 % 79 % 0 % 1027,3 hPa 0,0 l/m 0,0 km/h (0 Bft) SW 225 0 min 0,0 UV-I 4,0 C 4,1 C 0,0 km/h (0 Bft)
10.05.2011 04:35 8,5 C 17,1 C 6,7 C 7,0 C 4,1 C 0,0 C 72 % 79 % 0 % 1027,4 hPa 0,0 l/m 0,0 km/h (0 Bft) O-NO 67 0 min 0,0 UV-I 3,7 C 4,1 C 0,0 km/h (0 Bft)
10.05.2011 04:40 8,1 C 17,1 C 6,5 C 6,8 C 4,3 C 0,0 C 73 % 80 % 0 % 1027,4 hPa 0,0 l/m 0,5 km/h (0 Bft) O-NO 67 0 min 0,0 UV-I 3,6 C 4,3 C 0,0 km/h (0 Bft)
10.05.2011 04:45 8,1 C 17,0 C 6,6 C 6,9 C 4,5 C 0,0 C 74 % 81 % 0 % 1027,4 hPa 0,0 l/m 0,6 km/h (0 Bft) O-NO 67 0 min 0,0 UV-I 3,8 C 4,5 C 2,1 km/h (1 Bft)
10.05.2011 04:50 8,2 C 17,0 C 6,6 C 7,0 C 4,5 C 0,0 C 74 % 81 % 0 % 1027,4 hPa 0,0 l/m 0,2 km/h (0 Bft) NO 45 0 min 0,0 UV-I 3,8 C 4,5 C 0,0 km/h (0 Bft)
10.05.2011 04:55 8,1 C 17,0 C 6,6 C 6,9 C 4,5 C 0,0 C 74 % 82 % 0 % 1027,4 hPa 0,0 l/m 0,0 km/h (0 Bft) O-NO 67 0 min 0,0 UV-I 3,8 C 4,5 C 0,0 km/h (0 Bft)
10.05.2011 05:00 8,0 C 17,0 C 6,7 C 6,9 C 4,6 C 0,0 C 75 % 82 % 0 % 1027,4 hPa 0,0 l/m 0,0 km/h (0 Bft) NW 315 0 min 0,0 UV-I 3,8 C 4,6 C 0,0 km/h (0 Bft)
10.05.2011 05:10 8,4 C 17,0 C 6,5 C 7,0 C 4,3 C 0,0 C 74 % 81 % 0 % 1027,4 hPa 0,0 l/m 0,6 km/h (0 Bft) N 0 0 min 0,0 UV-I 4,0 C 4,3 C 2,3 km/h (1 Bft)
10.05.2011 05:15 8,3 C 17,0 C 6,5 C 6,8 C 3,9 C 0,0 C 74 % 81 % 0 % 1027,6 hPa 0,0 l/m 0,5 km/h (0 Bft) W-SW 247 0 min 0,0 UV-I 3,9 C 3,9 C 2,6 km/h (1 Bft)
10.05.2011 05:20 8,3 C 17,0 C 6,5 C 6,8 C 3,8 C 0,0 C 74 % 81 % 0 % 1027,6 hPa 0,0 l/m 0,2 km/h (0 Bft) W-SW 247 0 min 0,0 UV-I 3,9 C 3,8 C 0,0 km/h (0 Bft)
10.05.2011 05:25 7,9 C 17,0 C 6,1 C 6,5 C 3,6 C 0,0 C 74 % 82 % 0 % 1027,6 hPa 0,0 l/m 0,0 km/h (0 Bft) W-SW 247 0 min 0,0 UV-I 3,6 C 3,6 C 0,0 km/h (0 Bft)
10.05.2011 05:30 7,7 C 17,0 C 6,0 C 6,3 C 3,6 C 0,0 C 74 % 82 % 0 % 1027,6 hPa 0,0 l/m 0,0 km/h (0 Bft) W-SW 247 0 min 0,0 UV-I 3,4 C 3,6 C 0,0 km/h (0 Bft)
10.05.2011 05:35 7,7 C 17,0 C 6,1 C 6,3 C 3,6 C 0,0 C 75 % 82 % 0 % 1027,7 hPa 0,0 l/m 0,0 km/h (0 Bft) W-SW 247 0 min 0,0 UV-I 3,6 C 3,6 C 0,0 km/h (0 Bft)
10.05.2011 05:40 7,9 C 17,0 C 6,1 C 6,5 C 3,6 C 0,0 C 75 % 83 % 0 % 1027,7 hPa 0,0 l/m 0,0 km/h (0 Bft) W-SW 247 0 min 0,0 UV-I 3,7 C 3,6 C 0,0 km/h (0 Bft)
10.05.2011 05:45 8,0 C 17,0 C 6,2 C 6,5 C 3,5 C 0,0 C 75 % 83 % 0 % 1027,7 hPa 0,0 l/m 0,0 km/h (0 Bft) W-SW 247 0 min 0,0 UV-I 3,8 C 3,5 C 0,0 km/h (0 Bft)
10.05.2011 05:50 8,0 C 17,0 C 6,2 C 6,5 C 3,5 C 0,0 C 75 % 83 % 0 % 1027,7 hPa 0,0 l/m 0,0 km/h (0 Bft) W-SW 247 0 min 0,0 UV-I 3,8 C 3,5 C 0,0 km/h (0 Bft)
10.05.2011 05:55 8,0 C 17,0 C 6,3 C 6,5 C 3,6 C 0,0 C 75 % 82 % 0 % 1027,7 hPa 0,0 l/m 0,0 km/h (0 Bft) W-SW 247 0 min 0,0 UV-I 3,8 C 3,6 C 0,0 km/h (0 Bft)
10.05.2011 06:00 7,9 C 17,0 C 6,2 C 6,5 C 3,7 C 0,0 C 75 % 82 % 0 % 1027,7 hPa 0,0 l/m 0,0 km/h (0 Bft) W-SW 247 0 min 0,0 UV-I 3,7 C 3,7 C 0,0 km/h (0 Bft)
10.05.2011 06:10 7,6 C 17,0 C 6,1 C 6,5 C 4,3 C 0,0 C 76 % 83 % 0 % 1027,7 hPa 0,0 l/m 0,0 km/h (0 Bft) N 0 0 min 0,0 UV-I 3,6 C 4,3 C 0,0 km/h (0 Bft)
10.05.2011 06:15 7,9 C 17,0 C 6,3 C 6,8 C 4,7 C 0,0 C 76 % 83 % 0 % 1027,6 hPa 0,0 l/m 0,0 km/h (0 Bft) NO 45 0 min 0,0 UV-I 3,9 C 4,7 C 0,0 km/h (0 Bft)
10.05.2011 06:20 8,8 C 17,0 C 6,5 C 7,5 C 5,0 C 0,0 C 75 % 84 % 0 % 1027,6 hPa 0,0 l/m 0,0 km/h (0 Bft) NO 45 0 min 0,0 UV-I 4,6 C 5,0 C 0,0 km/h (0 Bft)
10.05.2011 06:25 9,3 C 17,0 C 6,4 C 7,9 C 5,0 C 0,0 C 73 % 83 % 0 % 1027,6 hPa 0,0 l/m 0,2 km/h (0 Bft) SW 225 0 min 0,0 UV-I 4,7 C 5,0 C 0,0 km/h (0 Bft)
10.05.2011 06:30 9,2 C 17,0 C 6,4 C 7,8 C 5,0 C 0,0 C 72 % 83 % 0 % 1027,6 hPa 0,0 l/m 0,3 km/h (0 Bft) W-SW 247 0 min 0,0 UV-I 4,4 C 5,0 C 1,8 km/h (1 Bft)
10.05.2011 06:35 10,1 C 17,0 C 6,5 C 8,4 C 5,0 C 0,0 C 71 % 83 % 0 % 1027,9 hPa 0,0 l/m 0,5 km/h (0 Bft) SW 225 0 min 0,0 UV-I 5,1 C 5,0 C 0,0 km/h (0 Bft)
10.05.2011 06:40 10,1 C 17,0 C 6,8 C 8,4 C 5,1 C 0,0 C 70 % 83 % 0 % 1027,9 hPa 0,0 l/m 0,5 km/h (0 Bft) SW 225 0 min 0,0 UV-I 4,9 C 5,1 C 0,0 km/h (0 Bft)
10.05.2011 06:45 10,1 C 17,0 C 6,9 C 8,5 C 5,4 C 0,0 C 70 % 82 % 0 % 1027,9 hPa 0,0 l/m 0,2 km/h (0 Bft) SW 225 0 min 0,0 UV-I 4,9 C 5,4 C 0,0 km/h (0 Bft)
10.05.2011 06:50 11,2 C 17,0 C 7,1 C 9,3 C 5,6 C 0,0 C 69 % 82 % 0 % 1027,9 hPa 0,0 l/m 0,2 km/h (0 Bft) NW 315 0 min 0,0 UV-I 5,7 C 5,6 C 0,0 km/h (0 Bft)
10.05.2011 06:55 14,3 C 17,0 C 7,2 C 11,8 C 6,8 C 0,0 C 63 % 83 % 0 % 1027,8 hPa 0,0 l/m 0,0 km/h (0 Bft) W 270 0 min 0,0 UV-I 7,4 C 6,8 C 0,0 km/h (0 Bft)
10.05.2011 07:00 14,9 C 17,0 C 7,5 C 12,8 C 8,7 C 0,0 C 59 % 82 % 0 % 1027,8 hPa 0,0 l/m 0,0 km/h (0 Bft) SW 225 0 min 0,0 UV-I 7,0 C 8,7 C 0,0 km/h (0 Bft)
10.05.2011 07:10 13,6 C 17,0 C 7,6 C 12,8 C 11,3 C 0,0 C 60 % 82 % 0 % 1027,8 hPa 0,0 l/m 0,3 km/h (0 Bft) N 0 0 min 0,0 UV-I 6,0 C 11,3 C 2,6 km/h (1 Bft)
10.05.2011 07:15 14,1 C 17,0 C 8,0 C 13,4 C 12,1 C 0,0 C 61 % 83 % 0 % 1028,0 hPa 0,0 l/m 1,0 km/h (0 Bft) NO 45 0 min 0,0 UV-I 6,7 C 12,1 C 2,7 km/h (1 Bft)
10.05.2011 07:20 14,5 C 16,1 C 8,2 C 14,0 C 12,9 C 0,0 C 60 % 82 % 0 % 1028,0 hPa 0,0 l/m 1,1 km/h (1 Bft) SW 225 0 min 0,0 UV-I 6,8 C 12,9 C 1,6 km/h (1 Bft)
10.05.2011 07:25 13,5 C 16,1 C 8,1 C 14,3 C 14,3 C 0,8 C 61 % 81 % 21 % 1028,0 hPa 0,0 l/m 0,5 km/h (0 Bft) W-SW 247 0 min 0,1 UV-I 6,1 C 14,3 C 0,0 km/h (0 Bft)
10.05.2011 07:30 13,2 C 16,1 C 8,1 C 15,0 C 15,0 C 1,8 C 61 % 81 % 47 % 1028,0 hPa 0,0 l/m 0,3 km/h (0 Bft) W-SW 247 0 min 0,1 UV-I 5,8 C 15,0 C 0,0 km/h (0 Bft)
10.05.2011 07:35 13,7 C 16,1 C 8,3 C 16,0 C 16,0 C 2,3 C 61 % 81 % 61 % 1028,0 hPa 0,0 l/m 0,2 km/h (0 Bft) W-SW 247 0 min 0,1 UV-I 6,3 C 16,0 C 0,0 km/h (0 Bft)
10.05.2011 07:40 13,3 C 16,1 C 8,3 C 16,4 C 16,4 C 3,1 C 62 % 81 % 82 % 1028,0 hPa 0,0 l/m 0,0 km/h (0 Bft) W-SW 247 0 min 0,1 UV-I 6,2 C 16,4 C 0,0 km/h (0 Bft)
10.05.2011 07:45 13,2 C 16,1 C 8,5 C 16,9 C 16,9 C 3,7 C 62 % 81 % 97 % 1028,0 hPa 0,0 l/m 0,0 km/h (0 Bft) SW 225 5 min 0,1 UV-I 6,1 C 16,9 C 0,0 km/h (0 Bft)
10.05.2011 07:50 13,3 C 16,1 C 8,8 C 17,6 C 17,6 C 4,3 C 62 % 82 % 100 % 1028,0 hPa 0,0 l/m 0,0 km/h (0 Bft) SW 225 5 min 0,1 UV-I 6,2 C 17,6 C 0,0 km/h (0 Bft)
10.05.2011 07:55 13,4 C 16,1 C 9,2 C 18,5 C 18,5 C 5,1 C 62 % 81 % 100 % 1028,1 hPa 0,0 l/m 0,0 km/h (0 Bft) SW 225 5 min 0,2 UV-I 6,3 C 18,5 C 0,0 km/h (0 Bft)
10.05.2011 08:00 13,6 C 16,1 C 9,2 C 19,4 C 19,4 C 5,8 C 63 % 81 % 100 % 1028,1 hPa 0,0 l/m 0,0 km/h (0 Bft) W-SW 247 5 min 0,2 UV-I 6,7 C 19,4 C 0,0 km/h (0 Bft)
10.05.2011 08:10 16,5 C 16,1 C 9,5 C 20,5 C 20,5 C 4,0 C 58 % 81 % 100 % 1028,1 hPa 0,0 l/m 0,0 km/h (0 Bft) N 0 10 min 0,2 UV-I 8,2 C 20,5 C 0,0 km/h (0 Bft)
10.05.2011 08:15 17,8 C 16,1 C 9,6 C 21,0 C 21,0 C 3,2 C 55 % 80 % 84 % 1028,2 hPa 0,0 l/m 0,0 km/h (0 Bft) SW 225 0 min 0,3 UV-I 8,6 C 21,0 C 0,0 km/h (0 Bft)
10.05.2011 08:20 17,5 C 16,1 C 9,9 C 21,6 C 21,6 C 4,1 C 54 % 80 % 100 % 1028,2 hPa 0,0 l/m 0,0 km/h (0 Bft) SW 225 5 min 0,3 UV-I 8,1 C 21,6 C 0,0 km/h (0 Bft)
10.05.2011 08:25 17,2 C 16,1 C 10,3 C 22,2 C 22,2 C 5,0 C 55 % 80 % 100 % 1028,2 hPa 0,0 l/m 0,3 km/h (0 Bft) SW 225 5 min 0,4 UV-I 8,1 C 22,2 C 0,0 km/h (0 Bft)
10.05.2011 08:30 17,1 C 16,1 C 10,5 C 22,3 C 22,3 C 5,2 C 55 % 79 % 100 % 1028,2 hPa 0,0 l/m 0,8 km/h (0 Bft) S-SW 202 5 min 0,4 UV-I 8,0 C 22,3 C 2,3 km/h (1 Bft)
10.05.2011 08:35 16,7 C 16,1 C 10,8 C 22,2 C 22,2 C 5,5 C 55 % 79 % 100 % 1028,4 hPa 0,0 l/m 1,0 km/h (0 Bft) SW 225 5 min 0,5 UV-I 7,6 C 22,2 C 2,9 km/h (1 Bft)
10.05.2011 08:40 16,2 C 16,1 C 11,0 C 22,7 C 22,7 C 6,5 C 56 % 79 % 100 % 1028,4 hPa 0,0 l/m 0,8 km/h (0 Bft) W-SW 247 5 min 0,5 UV-I 7,4 C 22,7 C 0,0 km/h (0 Bft)
10.05.2011 08:45 16,0 C 16,1 C 11,3 C 23,2 C 23,2 C 7,2 C 58 % 78 % 100 % 1028,4 hPa 0,0 l/m 0,8 km/h (0 Bft) SW 225 5 min 0,7 UV-I 7,7 C 23,2 C 2,4 km/h (1 Bft)
10.05.2011 08:50 16,0 C 16,1 C 11,6 C 23,5 C 23,5 C 7,5 C 58 % 78 % 100 % 1028,4 hPa 0,0 l/m 1,1 km/h (1 Bft) SW 225 5 min 0,7 UV-I 7,7 C 23,5 C 1,8 km/h (1 Bft)
10.05.2011 08:55 16,0 C 16,1 C 12,0 C 24,1 C 24,1 C 8,1 C 59 % 77 % 100 % 1027,8 hPa 0,0 l/m 1,1 km/h (1 Bft) SW 225 5 min 0,8 UV-I 8,0 C 24,1 C 0,0 km/h (0 Bft)
10.05.2011 09:00 16,0 C 16,1 C 12,3 C 24,6 C 24,6 C 8,6 C 59 % 77 % 100 % 1027,8 hPa 0,0 l/m 0,8 km/h (0 Bft) S 180 5 min 0,8 UV-I 8,0 C 24,6 C 2,3 km/h (1 Bft)
10.05.2011 09:10 16,3 C 16,1 C 12,8 C 25,9 C 25,9 C 9,6 C 60 % 77 % 100 % 1027,8 hPa 0,0 l/m 0,5 km/h (0 Bft) N 0 10 min 0,9 UV-I 8,5 C 25,9 C 0,0 km/h (0 Bft)
10.05.2011 09:15 16,5 C 16,1 C 13,1 C 26,7 C 26,7 C 10,2 C 60 % 76 % 100 % 1027,8 hPa 0,0 l/m 0,2 km/h (0 Bft) W-SW 247 5 min 1,1 UV-I 8,7 C 26,7 C 3,2 km/h (1 Bft)
10.05.2011 09:20 16,6 C 16,1 C 13,5 C 26,8 C 26,8 C 10,2 C 60 % 76 % 100 % 1027,8 hPa 0,0 l/m 0,3 km/h (0 Bft) NO 45 5 min 1,1 UV-I 8,8 C 26,8 C 3,5 km/h (1 Bft)
10.05.2011 09:25 17,1 C 16,1 C 14,0 C 26,6 C 26,6 C 9,5 C 58 % 74 % 100 % 1027,8 hPa 0,0 l/m 0,6 km/h (0 Bft) O-SO 112 5 min 1,2 UV-I 8,8 C 26,6 C 1,8 km/h (1 Bft)
10.05.2011 09:30 17,2 C 16,1 C 14,1 C 26,5 C 26,5 C 9,3 C 57 % 73 % 100 % 1027,8 hPa 0,0 l/m 1,0 km/h (0 Bft) O-NO 67 5 min 1,2 UV-I 8,6 C 26,5 C 2,1 km/h (1 Bft)
10.05.2011 09:35 17,5 C 16,1 C 14,4 C 24,6 C 24,6 C 7,1 C 56 % 70 % 100 % 1027,9 hPa 0,0 l/m 1,4 km/h (1 Bft) NO 45 5 min 0,7 UV-I 8,6 C 24,6 C 8,2 km/h (2 Bft)
10.05.2011 09:40 17,9 C 16,1 C 15,2 C 23,2 C 23,2 C 5,3 C 54 % 69 % 100 % 1027,9 hPa 0,0 l/m 2,1 km/h (1 Bft) O-SO 112 5 min 0,7 UV-I 8,5 C 23,2 C 3,5 km/h (1 Bft)
10.05.2011 09:45 18,1 C 16,1 C 15,5 C 22,0 C 22,0 C 3,9 C 54 % 67 % 100 % 1027,9 hPa 0,0 l/m 2,1 km/h (1 Bft) W-SW 247 5 min 0,7 UV-I 8,6 C 22,0 C 4,0 km/h (1 Bft)
10.05.2011 09:50 18,3 C 16,1 C 15,6 C 21,5 C 21,5 C 3,2 C 53 % 66 % 84 % 1027,9 hPa 0,0 l/m 1,3 km/h (1 Bft) O-NO 67 0 min 0,7 UV-I 8,6 C 21,5 C 5,3 km/h (1 Bft)
10.05.2011 09:55 18,5 C 16,1 C 16,1 C 21,2 C 21,2 C 2,7 C 52 % 62 % 71 % 1027,8 hPa 0,0 l/m 1,3 km/h (1 Bft) NO 45 0 min 0,7 UV-I 8,5 C 21,2 C 2,7 km/h (1 Bft)
10.05.2011 10:00 18,7 C 16,1 C 16,6 C 21,1 C 21,1 C 2,4 C 50 % 59 % 63 % 1027,8 hPa 0,0 l/m 1,1 km/h (1 Bft) NO 45 0 min 0,7 UV-I 8,1 C 21,1 C 1,6 km/h (1 Bft)
10.05.2011 10:10 19,2 C 16,1 C 17,5 C 21,4 C 21,4 C 2,2 C 47 % 53 % 58 % 1027,8 hPa 0,0 l/m 1,0 km/h (0 Bft) N 0 0 min 0,8 UV-I 7,6 C 21,4 C 0,0 km/h (0 Bft)
10.05.2011 10:15 19,5 C 16,1 C 17,6 C 24,3 C 24,3 C 4,8 C 45 % 53 % 100 % 1027,8 hPa 0,0 l/m 1,3 km/h (1 Bft) O-SO 112 5 min 0,8 UV-I 7,2 C 24,3 C 8,7 km/h (2 Bft)
10.05.2011 10:20 19,9 C 16,1 C 18,0 C 24,8 C 24,8 C 4,9 C 44 % 53 % 100 % 1027,8 hPa 0,0 l/m 3,1 km/h (1 Bft) NO 45 5 min 0,8 UV-I 7,3 C 24,8 C 5,3 km/h (1 Bft)
10.05.2011 10:25 20,4 C 16,1 C 18,5 C 25,3 C 25,3 C 4,9 C 45 % 51 % 100 % 1027,8 hPa 0,0 l/m 5,0 km/h (1 Bft) O-NO 67 5 min 0,9 UV-I 8,1 C 25,3 C 9,0 km/h (2 Bft)
10.05.2011 10:30 20,4 C 16,1 C 18,7 C 26,0 C 26,0 C 5,6 C 44 % 49 % 100 % 1027,8 hPa 0,0 l/m 4,5 km/h (1 Bft) O-NO 67 5 min 0,9 UV-I 7,7 C 26,0 C 8,2 km/h (2 Bft)
10.05.2011 10:35 20,7 C 15,8 C 19,2 C 26,5 C 26,5 C 5,8 C 43 % 47 % 100 % 1027,6 hPa 0,0 l/m 4,0 km/h (1 Bft) O-NO 67 5 min 0,9 UV-I 7,7 C 26,5 C 3,9 km/h (1 Bft)
10.05.2011 10:40 20,9 C 15,8 C 19,2 C 26,9 C 26,9 C 6,0 C 43 % 49 % 100 % 1027,6 hPa 0,0 l/m 3,9 km/h (1 Bft) NO 45 5 min 0,9 UV-I 7,8 C 26,9 C 5,6 km/h (1 Bft)
10.05.2011 10:45 21,1 C 15,8 C 19,6 C 27,0 C 27,0 C 5,9 C 42 % 47 % 100 % 1027,6 hPa 0,0 l/m 4,0 km/h (1 Bft) O-NO 67 5 min 0,9 UV-I 7,7 C 27,0 C 7,6 km/h (2 Bft)
10.05.2011 10:50 21,3 C 15,8 C 20,1 C 26,9 C 26,9 C 5,6 C 43 % 49 % 100 % 1027,6 hPa 0,0 l/m 5,0 km/h (1 Bft) NO 45 5 min 0,9 UV-I 8,2 C 26,9 C 5,3 km/h (1 Bft)
10.05.2011 10:55 21,5 C 15,8 C 19,9 C 27,1 C 27,1 C 5,6 C 43 % 48 % 100 % 1027,4 hPa 0,0 l/m 3,7 km/h (1 Bft) SW 225 5 min 1,0 UV-I 8,4 C 27,1 C 0,0 km/h (0 Bft)
10.05.2011 11:00 21,7 C 15,8 C 19,9 C 27,6 C 27,6 C 5,9 C 42 % 48 % 100 % 1027,4 hPa 0,0 l/m 3,4 km/h (1 Bft) NO 45 5 min 1,0 UV-I 8,2 C 27,6 C 8,0 km/h (2 Bft)
10.05.2011 11:10 22,0 C 15,8 C 20,3 C 27,8 C 27,8 C 5,8 C 40 % 46 % 100 % 1027,4 hPa 0,0 l/m 2,7 km/h (1 Bft) N 0 10 min 1,1 UV-I 7,8 C 27,8 C 0,0 km/h (0 Bft)
10.05.2011 11:15 22,2 C 15,8 C 20,3 C 27,5 C 27,5 C 5,3 C 39 % 46 % 100 % 1027,1 hPa 0,0 l/m 2,1 km/h (1 Bft) W-SW 247 5 min 1,1 UV-I 7,6 C 27,5 C 2,1 km/h (1 Bft)
10.05.2011 11:20 22,4 C 15,8 C 20,2 C 26,3 C 26,3 C 3,9 C 38 % 45 % 100 % 1027,1 hPa 0,0 l/m 2,4 km/h (1 Bft) NO 45 5 min 1,1 UV-I 7,4 C 26,3 C 3,2 km/h (1 Bft)
10.05.2011 11:25 22,7 C 15,8 C 20,7 C 25,0 C 25,0 C 2,3 C 38 % 43 % 61 % 1027,1 hPa 0,0 l/m 2,6 km/h (1 Bft) NO 45 0 min 1,1 UV-I 7,6 C 25,0 C 2,9 km/h (1 Bft)
10.05.2011 11:30 22,7 C 15,8 C 20,7 C 24,5 C 24,5 C 1,8 C 37 % 42 % 47 % 1027,1 hPa 0,0 l/m 2,4 km/h (1 Bft) NO 45 0 min 1,1 UV-I 7,3 C 24,5 C 5,0 km/h (1 Bft)
10.05.2011 11:35 22,9 C 15,8 C 21,0 C 25,9 C 25,9 C 3,0 C 36 % 41 % 79 % 1027,2 hPa 0,0 l/m 1,6 km/h (1 Bft) O-NO 67 0 min 1,2 UV-I 7,0 C 25,9 C 6,3 km/h (2 Bft)
10.05.2011 11:40 22,8 C 15,8 C 21,3 C 26,4 C 26,4 C 3,6 C 35 % 41 % 95 % 1027,2 hPa 0,0 l/m 1,4 km/h (1 Bft) S-SO 157 5 min 1,2 UV-I 6,5 C 26,4 C 0,0 km/h (0 Bft)
10.05.2011 11:45 23,1 C 15,8 C 21,2 C 27,6 C 27,6 C 4,5 C 37 % 43 % 100 % 1027,2 hPa 0,0 l/m 1,9 km/h (1 Bft) NO 45 5 min 1,2 UV-I 7,6 C 27,6 C 7,7 km/h (2 Bft)
10.05.2011 11:50 23,2 C 15,8 C 21,3 C 27,6 C 27,6 C 4,4 C 37 % 42 % 100 % 1027,2 hPa 0,0 l/m 3,1 km/h (1 Bft) NO 45 5 min 1,2 UV-I 7,7 C 27,6 C 3,1 km/h (1 Bft)
10.05.2011 11:55 23,3 C 15,8 C 21,5 C 28,4 C 28,4 C 5,1 C 36 % 43 % 100 % 1027,2 hPa 0,0 l/m 2,6 km/h (1 Bft) S 180 5 min 1,3 UV-I 7,4 C 28,4 C 1,9 km/h (1 Bft)
10.05.2011 12:00 23,3 C 15,8 C 21,5 C 29,0 C 29,0 C 5,7 C 36 % 42 % 100 % 1027,2 hPa 0,0 l/m 1,8 km/h (1 Bft) O-NO 67 5 min 1,3 UV-I 7,4 C 29,0 C 0,0 km/h (0 Bft)
10.05.2011 12:10 23,4 C 15,8 C 21,8 C 29,5 C 29,5 C 6,1 C 35 % 41 % 100 % 1027,2 hPa 0,0 l/m 2,3 km/h (1 Bft) N 0 10 min 1,4 UV-I 7,1 C 29,5 C 5,8 km/h (2 Bft)
10.05.2011 12:15 23,6 C 15,8 C 21,9 C 29,2 C 29,2 C 5,6 C 36 % 41 % 100 % 1027,1 hPa 0,0 l/m 3,2 km/h (1 Bft) O-NO 67 5 min 1,8 UV-I 7,6 C 29,2 C 9,8 km/h (2 Bft)
10.05.2011 12:20 23,6 C 15,8 C 21,9 C 28,8 C 28,8 C 5,2 C 36 % 43 % 100 % 1027,1 hPa 0,0 l/m 2,9 km/h (1 Bft) S 180 5 min 1,8 UV-I 7,6 C 28,8 C 3,7 km/h (1 Bft)
10.05.2011 12:25 23,7 C 15,8 C 22,1 C 28,6 C 28,6 C 4,9 C 34 % 39 % 100 % 1027,1 hPa 0,0 l/m 3,9 km/h (1 Bft) NO 45 5 min 3,4 UV-I 6,9 C 28,6 C 12,7 km/h (3 Bft)
10.05.2011 12:30 23,8 C 15,8 C 22,3 C 28,0 C 28,0 C 4,2 C 33 % 39 % 100 % 1027,1 hPa 0,0 l/m 4,7 km/h (1 Bft) O-NO 67 5 min 3,4 UV-I 6,6 C 28,0 C 2,7 km/h (1 Bft)
10.05.2011 12:35 24,0 C 15,8 C 22,6 C 28,0 C 28,0 C 4,0 C 31 % 35 % 100 % 1026,8 hPa 0,0 l/m 5,0 km/h (1 Bft) NO 45 5 min 3,6 UV-I 5,8 C 28,0 C 7,9 km/h (2 Bft)
10.05.2011 12:40 24,1 C 15,8 C 22,9 C 28,2 C 28,2 C 4,1 C 30 % 34 % 100 % 1026,8 hPa 0,0 l/m 3,5 km/h (1 Bft) O-NO 67 5 min 3,6 UV-I 5,4 C 28,2 C 3,5 km/h (1 Bft)
10.05.2011 12:45 24,1 C 15,8 C 23,2 C 28,1 C 28,1 C 4,0 C 30 % 33 % 100 % 1026,8 hPa 0,0 l/m 4,5 km/h (1 Bft) O-NO 67 5 min 3,5 UV-I 5,4 C 28,1 C 14,8 km/h (3 Bft)
10.05.2011 12:50 24,1 C 15,8 C 23,5 C 27,8 C 27,8 C 3,7 C 31 % 33 % 97 % 1026,8 hPa 0,0 l/m 6,1 km/h (2 Bft) NO 45 5 min 3,5 UV-I 5,9 C 27,8 C 3,4 km/h (1 Bft)
10.05.2011 12:55 24,4 C 15,8 C 23,4 C 28,3 C 28,3 C 3,9 C 30 % 34 % 100 % 1026,7 hPa 0,0 l/m 5,6 km/h (1 Bft) O-SO 112 5 min 3,6 UV-I 5,7 C 28,3 C 8,9 km/h (2 Bft)
10.05.2011 13:00 24,4 C 15,8 C 23,7 C 28,1 C 28,1 C 3,7 C 31 % 33 % 97 % 1026,7 hPa 0,0 l/m 4,3 km/h (1 Bft) N-NO 22 5 min 3,6 UV-I 6,2 C 28,1 C 6,6 km/h (2 Bft)
10.05.2011 13:10 24,4 C 15,8 C 23,7 C 27,4 C 27,4 C 3,0 C 31 % 33 % 79 % 1026,7 hPa 0,0 l/m 7,1 km/h (2 Bft) N 0 0 min 3,4 UV-I 6,2 C 27,4 C 18,0 km/h (3 Bft)
10.05.2011 13:15 24,4 C 15,8 C 23,5 C 27,4 C 27,4 C 3,0 C 31 % 34 % 79 % 1026,6 hPa 0,0 l/m 6,1 km/h (2 Bft) NO 45 0 min 3,3 UV-I 6,2 C 27,4 C 6,6 km/h (2 Bft)
10.05.2011 13:20 24,5 C 15,8 C 23,6 C 27,5 C 27,5 C 3,0 C 32 % 34 % 79 % 1026,6 hPa 0,0 l/m 5,8 km/h (2 Bft) NO 45 0 min 3,3 UV-I 6,7 C 27,5 C 9,7 km/h (2 Bft)
10.05.2011 13:25 24,6 C 15,8 C 23,8 C 27,8 C 27,8 C 3,2 C 31 % 34 % 84 % 1026,6 hPa 0,0 l/m 4,7 km/h (1 Bft) NO 45 0 min 3,2 UV-I 6,3 C 27,8 C 2,7 km/h (1 Bft)
10.05.2011 13:30 24,7 C 15,8 C 23,7 C 28,2 C 28,2 C 3,5 C 31 % 33 % 92 % 1026,6 hPa 0,0 l/m 3,9 km/h (1 Bft) NO 45 5 min 3,2 UV-I 6,4 C 28,2 C 2,9 km/h (1 Bft)
10.05.2011 13:35 24,9 C 15,8 C 23,9 C 28,7 C 28,7 C 3,8 C 31 % 33 % 100 % 1026,5 hPa 0,0 l/m 4,0 km/h (1 Bft) O-NO 67 5 min 3,6 UV-I 6,6 C 28,7 C 5,8 km/h (2 Bft)
10.05.2011 13:40 24,8 C 15,8 C 24,1 C 28,6 C 28,6 C 3,8 C 31 % 32 % 100 % 1026,5 hPa 0,0 l/m 4,8 km/h (1 Bft) N-NO 22 5 min 3,6 UV-I 6,5 C 28,6 C 1,9 km/h (1 Bft)
10.05.2011 13:45 24,9 C 15,8 C 24,3 C 29,0 C 29,0 C 4,1 C 31 % 36 % 100 % 1026,5 hPa 0,0 l/m 4,2 km/h (1 Bft) O-NO 67 5 min 3,5 UV-I 6,6 C 29,0 C 3,2 km/h (1 Bft)
10.05.2011 13:50 25,1 C 15,8 C 24,3 C 29,4 C 29,4 C 4,3 C 30 % 33 % 100 % 1026,5 hPa 0,0 l/m 3,4 km/h (1 Bft) O-NO 67 5 min 3,5 UV-I 6,3 C 29,4 C 10,9 km/h (2 Bft)
10.05.2011 13:55 25,0 C 15,8 C 24,4 C 28,8 C 28,8 C 3,8 C 30 % 33 % 100 % 1026,5 hPa 0,0 l/m 5,0 km/h (1 Bft) O-NO 67 5 min 3,4 UV-I 6,2 C 28,8 C 7,9 km/h (2 Bft)
10.05.2011 14:00 25,1 C 15,8 C 24,5 C 28,4 C 28,4 C 3,3 C 30 % 33 % 87 % 1026,5 hPa 0,0 l/m 7,2 km/h (2 Bft) O-NO 67 5 min 3,4 UV-I 6,3 C 28,4 C 5,0 km/h (1 Bft)
10.05.2011 14:10 25,4 C 15,8 C 24,7 C 29,5 C 29,5 C 4,1 C 28 % 31 % 100 % 1026,5 hPa 0,0 l/m 2,6 km/h (1 Bft) N 0 10 min 3,4 UV-I 5,6 C 29,5 C 0,0 km/h (0 Bft)
10.05.2011 14:15 25,3 C 15,8 C 24,9 C 30,2 C 30,2 C 4,9 C 29 % 31 % 100 % 1026,4 hPa 0,0 l/m 1,8 km/h (1 Bft) O-NO 67 5 min 2,8 UV-I 6,0 C 30,2 C 3,4 km/h (1 Bft)
10.05.2011 14:20 25,3 C 15,8 C 24,9 C 29,8 C 29,8 C 4,5 C 29 % 30 % 100 % 1026,4 hPa 0,0 l/m 2,4 km/h (1 Bft) W-SW 247 5 min 2,8 UV-I 6,0 C 29,8 C 2,9 km/h (1 Bft)
10.05.2011 14:25 25,4 C 15,8 C 25,1 C 29,9 C 29,9 C 4,5 C 29 % 31 % 100 % 1026,4 hPa 0,0 l/m 3,1 km/h (1 Bft) O-NO 67 5 min 3,1 UV-I 6,1 C 29,9 C 4,3 km/h (1 Bft)
10.05.2011 14:30 25,7 C 15,8 C 25,8 C 30,1 C 30,1 C 4,4 C 29 % 32 % 100 % 1026,4 hPa 0,0 l/m 2,9 km/h (1 Bft) NO 45 5 min 3,1 UV-I 6,3 C 30,1 C 3,2 km/h (1 Bft)
10.05.2011 14:35 25,7 C 15,8 C 26,2 C 30,6 C 30,6 C 4,9 C 29 % 31 % 100 % 1026,4 hPa 0,0 l/m 2,7 km/h (1 Bft) O-NO 67 5 min 3,2 UV-I 6,3 C 30,6 C 2,9 km/h (1 Bft)
10.05.2011 14:40 25,7 C 15,8 C 26,5 C 30,5 C 30,5 C 4,8 C 30 % 31 % 100 % 1026,4 hPa 0,0 l/m 3,7 km/h (1 Bft) O-SO 112 5 min 3,2 UV-I 6,8 C 30,5 C 6,8 km/h (2 Bft)
10.05.2011 14:45 25,6 C 15,8 C 26,0 C 29,9 C 29,9 C 4,3 C 30 % 32 % 100 % 1026,4 hPa 0,0 l/m 3,2 km/h (1 Bft) O-NO 67 5 min 2,6 UV-I 6,7 C 29,9 C 8,5 km/h (2 Bft)
10.05.2011 14:50 25,7 C 15,8 C 26,1 C 29,6 C 29,6 C 3,9 C 30 % 32 % 100 % 1026,4 hPa 0,0 l/m 3,5 km/h (1 Bft) N-NW 337 5 min 2,6 UV-I 6,8 C 29,6 C 1,8 km/h (1 Bft)
10.05.2011 14:55 25,9 C 15,8 C 26,6 C 30,1 C 30,1 C 4,2 C 29 % 29 % 100 % 1026,2 hPa 0,0 l/m 3,2 km/h (1 Bft) NO 45 5 min 2,9 UV-I 6,5 C 30,1 C 2,1 km/h (1 Bft)
10.05.2011 15:00 25,9 C 15,8 C 26,9 C 30,5 C 30,5 C 4,6 C 28 % 28 % 100 % 1026,2 hPa 0,0 l/m 2,1 km/h (1 Bft) O 90 5 min 2,9 UV-I 6,0 C 30,5 C 3,7 km/h (1 Bft)
10.05.2011 15:10 26,3 C 15,8 C 27,6 C 31,6 C 31,6 C 5,3 C 29 % 28 % 100 % 1026,2 hPa 0,0 l/m 1,9 km/h (1 Bft) N 0 10 min 2,8 UV-I 6,8 C 31,6 C 4,8 km/h (1 Bft)
10.05.2011 15:15 26,1 C 15,8 C 27,7 C 31,7 C 31,7 C 5,6 C 28 % 29 % 100 % 1026,1 hPa 0,0 l/m 1,9 km/h (1 Bft) N 360 5 min 2,3 UV-I 6,2 C 31,7 C 0,0 km/h (0 Bft)
10.05.2011 15:20 26,0 C 15,8 C 27,5 C 31,7 C 31,7 C 5,7 C 29 % 29 % 100 % 1026,1 hPa 0,0 l/m 1,4 km/h (1 Bft) S 180 5 min 2,3 UV-I 6,6 C 31,7 C 5,0 km/h (1 Bft)
10.05.2011 15:25 26,3 C 15,8 C 27,6 C 31,6 C 31,6 C 5,3 C 28 % 29 % 100 % 1026,1 hPa 0,0 l/m 1,3 km/h (1 Bft) S 180 5 min 2,4 UV-I 6,3 C 31,6 C 2,3 km/h (1 Bft)
10.05.2011 15:30 26,3 C 15,8 C 27,7 C 31,9 C 31,9 C 5,6 C 29 % 29 % 100 % 1026,1 hPa 0,0 l/m 1,4 km/h (1 Bft) W-SW 247 5 min 2,4 UV-I 6,8 C 31,9 C 0,0 km/h (0 Bft)
10.05.2011 15:35 26,4 C 15,8 C 27,7 C 32,2 C 32,2 C 5,8 C 28 % 29 % 100 % 1025,8 hPa 0,0 l/m 1,3 km/h (1 Bft) W 270 5 min 2,4 UV-I 6,4 C 32,2 C 1,9 km/h (1 Bft)
10.05.2011 15:40 26,5 C 15,8 C 27,6 C 32,0 C 32,0 C 5,5 C 28 % 29 % 100 % 1025,8 hPa 0,0 l/m 1,4 km/h (1 Bft) N-NO 22 5 min 2,4 UV-I 6,5 C 32,0 C 2,6 km/h (1 Bft)
10.05.2011 15:45 26,4 C 15,8 C 27,5 C 32,0 C 32,0 C 5,6 C 28 % 29 % 100 % 1025,8 hPa 0,0 l/m 1,3 km/h (1 Bft) N-NO 22 5 min 2,1 UV-I 6,4 C 32,0 C 0,0 km/h (0 Bft)
10.05.2011 15:50 26,3 C 15,8 C 27,3 C 31,9 C 31,9 C 5,6 C 28 % 30 % 100 % 1025,8 hPa 0,0 l/m 1,0 km/h (0 Bft) N-NO 22 5 min 2,1 UV-I 6,3 C 31,9 C 1,8 km/h (1 Bft)
10.05.2011 15:55 26,4 C 15,8 C 27,3 C 32,0 C 32,0 C 5,6 C 28 % 30 % 100 % 1025,9 hPa 0,0 l/m 0,8 km/h (0 Bft) N-NW 337 5 min 2,0 UV-I 6,4 C 32,0 C 2,3 km/h (1 Bft)
10.05.2011 16:00 26,4 C 15,8 C 27,2 C 32,1 C 32,1 C 5,7 C 28 % 30 % 100 % 1025,9 hPa 0,0 l/m 1,1 km/h (1 Bft) S 180 5 min 2,0 UV-I 6,4 C 32,1 C 3,7 km/h (1 Bft)
10.05.2011 16:10 26,5 C 15,8 C 27,1 C 32,1 C 32,1 C 5,6 C 29 % 30 % 100 % 1025,9 hPa 0,0 l/m 1,6 km/h (1 Bft) N 0 10 min 1,8 UV-I 7,0 C 32,1 C 4,5 km/h (1 Bft)
10.05.2011 16:15 26,3 C 15,8 C 26,8 C 30,8 C 30,8 C 4,5 C 30 % 31 % 100 % 1025,8 hPa 0,0 l/m 4,2 km/h (1 Bft) NO 45 5 min 1,6 UV-I 7,3 C 30,8 C 11,9 km/h (2 Bft)
10.05.2011 16:20 26,3 C 15,8 C 26,9 C 30,2 C 30,2 C 3,9 C 30 % 31 % 100 % 1025,8 hPa 0,0 l/m 4,8 km/h (1 Bft) O-NO 67 5 min 1,6 UV-I 7,3 C 30,2 C 2,7 km/h (1 Bft)
10.05.2011 16:25 26,4 C 15,8 C 27,0 C 30,6 C 30,6 C 4,2 C 29 % 29 % 100 % 1025,8 hPa 0,0 l/m 2,3 km/h (1 Bft) O-NO 67 5 min 1,3 UV-I 6,9 C 30,6 C 0,0 km/h (0 Bft)
10.05.2011 16:30 26,5 C 15,8 C 27,3 C 30,6 C 30,6 C 4,1 C 28 % 30 % 100 % 1025,8 hPa 0,0 l/m 1,9 km/h (1 Bft) S-SW 202 5 min 1,3 UV-I 6,5 C 30,6 C 9,8 km/h (2 Bft)
10.05.2011 16:35 26,3 C 15,8 C 26,7 C 29,7 C 29,7 C 3,4 C 29 % 30 % 89 % 1025,7 hPa 0,0 l/m 1,6 km/h (1 Bft) O 90 5 min 0,8 UV-I 6,8 C 29,7 C 0,0 km/h (0 Bft)
10.05.2011 16:40 26,5 C 15,8 C 26,7 C 29,9 C 29,9 C 3,4 C 29 % 30 % 89 % 1025,7 hPa 0,0 l/m 1,4 km/h (1 Bft) W-SW 247 5 min 0,8 UV-I 7,0 C 29,9 C 2,7 km/h (1 Bft)
10.05.2011 16:45 26,8 C 15,8 C 27,2 C 30,6 C 30,6 C 3,8 C 29 % 30 % 100 % 1025,7 hPa 0,0 l/m 1,9 km/h (1 Bft) N-NW 337 5 min 0,8 UV-I 7,3 C 30,6 C 2,1 km/h (1 Bft)
10.05.2011 16:50 27,1 C 15,8 C 27,3 C 31,3 C 31,3 C 4,2 C 28 % 30 % 100 % 1025,7 hPa 0,0 l/m 2,1 km/h (1 Bft) W-SW 247 5 min 0,8 UV-I 7,0 C 31,3 C 1,8 km/h (1 Bft)
10.05.2011 16:55 27,0 C 15,8 C 27,2 C 31,9 C 31,9 C 4,9 C 28 % 30 % 100 % 1025,4 hPa 0,0 l/m 1,3 km/h (1 Bft) N-NO 22 5 min 0,8 UV-I 6,9 C 31,9 C 0,0 km/h (0 Bft)
10.05.2011 17:00 26,7 C 15,8 C 26,7 C 31,8 C 31,8 C 5,1 C 27 % 29 % 100 % 1025,4 hPa 0,0 l/m 0,6 km/h (0 Bft) N 360 5 min 0,8 UV-I 6,1 C 31,8 C 0,0 km/h (0 Bft)
10.05.2011 17:10 26,5 C 15,8 C 25,9 C 30,5 C 30,5 C 4,0 C 29 % 32 % 100 % 1025,4 hPa 0,0 l/m 1,0 km/h (0 Bft) N 0 10 min 0,8 UV-I 7,0 C 30,5 C 1,8 km/h (1 Bft)
10.05.2011 17:15 26,1 C 15,8 C 25,4 C 29,5 C 29,5 C 3,4 C 30 % 33 % 89 % 1025,1 hPa 0,0 l/m 1,3 km/h (1 Bft) O-NO 67 5 min 0,6 UV-I 7,2 C 29,5 C 3,9 km/h (1 Bft)
10.05.2011 17:20 25,8 C 15,8 C 25,1 C 28,2 C 28,2 C 2,4 C 30 % 33 % 63 % 1025,1 hPa 0,0 l/m 1,9 km/h (1 Bft) NO 45 0 min 0,6 UV-I 6,9 C 28,2 C 2,4 km/h (1 Bft)
10.05.2011 17:25 25,9 C 15,8 C 24,8 C 27,4 C 27,4 C 1,5 C 31 % 34 % 39 % 1025,1 hPa 0,0 l/m 2,3 km/h (1 Bft) O-NO 67 0 min 0,5 UV-I 7,5 C 27,4 C 3,9 km/h (1 Bft)
10.05.2011 17:30 26,0 C 15,8 C 24,9 C 27,7 C 27,7 C 1,7 C 31 % 35 % 45 % 1025,1 hPa 0,0 l/m 1,9 km/h (1 Bft) N-NO 22 0 min 0,5 UV-I 7,5 C 27,7 C 5,8 km/h (2 Bft)
10.05.2011 17:35 26,2 C 15,8 C 25,1 C 28,5 C 28,5 C 2,3 C 31 % 35 % 61 % 1025,2 hPa 0,0 l/m 2,1 km/h (1 Bft) SO 135 0 min 0,6 UV-I 7,7 C 28,5 C 0,0 km/h (0 Bft)
10.05.2011 17:40 25,9 C 15,8 C 24,8 C 28,9 C 28,9 C 3,0 C 31 % 34 % 79 % 1025,2 hPa 0,0 l/m 2,4 km/h (1 Bft) O-NO 67 0 min 0,6 UV-I 7,5 C 28,9 C 2,9 km/h (1 Bft)
10.05.2011 17:45 26,1 C 18,4 C 24,8 C 28,6 C 28,6 C 2,5 C 31 % 36 % 66 % 1025,2 hPa 0,0 l/m 2,1 km/h (1 Bft) NO 45 0 min 0,5 UV-I 7,6 C 28,6 C 7,2 km/h (2 Bft)
10.05.2011 17:50 26,1 C 18,4 C 24,9 C 28,5 C 28,5 C 2,4 C 31 % 35 % 63 % 1025,2 hPa 0,0 l/m 3,1 km/h (1 Bft) O-NO 67 0 min 0,5 UV-I 7,6 C 28,5 C 2,1 km/h (1 Bft)
10.05.2011 17:55 26,4 C 18,4 C 24,9 C 29,4 C 29,4 C 3,0 C 30 % 35 % 79 % 1025,1 hPa 0,0 l/m 2,1 km/h (1 Bft) NO 45 0 min 0,4 UV-I 7,4 C 29,4 C 1,9 km/h (1 Bft)
10.05.2011 18:00 26,5 C 18,4 C 24,9 C 29,8 C 29,8 C 3,3 C 30 % 36 % 87 % 1025,1 hPa 0,0 l/m 1,8 km/h (1 Bft) NO 45 5 min 0,4 UV-I 7,5 C 29,8 C 4,3 km/h (1 Bft)
10.05.2011 18:10 25,9 C 18,4 C 24,7 C 28,8 C 28,8 C 2,9 C 31 % 33 % 76 % 1025,1 hPa 0,0 l/m 4,3 km/h (1 Bft) N 0 0 min 0,4 UV-I 7,5 C 28,8 C 5,1 km/h (1 Bft)
10.05.2011 18:15 25,6 C 18,4 C 24,6 C 27,8 C 27,8 C 2,2 C 32 % 35 % 58 % 1024,7 hPa 0,0 l/m 4,3 km/h (1 Bft) O-NO 67 0 min 0,2 UV-I 7,7 C 27,8 C 2,7 km/h (1 Bft)
10.05.2011 18:20 25,7 C 18,4 C 24,6 C 27,3 C 27,3 C 1,6 C 32 % 36 % 42 % 1024,7 hPa 0,0 l/m 3,9 km/h (1 Bft) O-NO 67 0 min 0,2 UV-I 7,8 C 27,3 C 10,1 km/h (2 Bft)
10.05.2011 18:25 25,7 C 18,4 C 24,4 C 27,2 C 27,2 C 1,5 C 33 % 36 % 39 % 1024,7 hPa 0,0 l/m 4,8 km/h (1 Bft) NO 45 0 min 0,2 UV-I 8,2 C 27,2 C 4,8 km/h (1 Bft)
10.05.2011 18:30 25,6 C 18,4 C 24,4 C 27,3 C 27,3 C 1,7 C 34 % 37 % 45 % 1024,7 hPa 0,0 l/m 5,3 km/h (1 Bft) O-NO 67 0 min 0,2 UV-I 8,6 C 27,3 C 6,0 km/h (2 Bft)
10.05.2011 18:35 25,7 C 18,4 C 24,3 C 27,3 C 27,3 C 1,6 C 33 % 37 % 42 % 1024,8 hPa 0,0 l/m 4,3 km/h (1 Bft) O-NO 67 0 min 0,2 UV-I 8,2 C 27,3 C 4,7 km/h (1 Bft)
10.05.2011 18:40 25,6 C 18,4 C 24,3 C 27,3 C 27,3 C 1,7 C 33 % 37 % 45 % 1024,8 hPa 0,0 l/m 4,7 km/h (1 Bft) O-NO 67 0 min 0,2 UV-I 8,1 C 27,3 C 7,1 km/h (2 Bft)
10.05.2011 18:45 25,2 C 18,4 C 24,1 C 26,8 C 26,8 C 1,6 C 33 % 36 % 42 % 1024,8 hPa 0,0 l/m 5,1 km/h (1 Bft) O-NO 67 0 min 0,1 UV-I 7,8 C 26,8 C 3,2 km/h (1 Bft)
10.05.2011 18:50 25,3 C 18,4 C 24,1 C 26,4 C 26,4 C 1,1 C 33 % 37 % 29 % 1024,8 hPa 0,0 l/m 5,0 km/h (1 Bft) O-NO 67 0 min 0,1 UV-I 7,9 C 26,4 C 4,7 km/h (1 Bft)
10.05.2011 18:55 25,5 C 18,4 C 24,1 C 26,7 C 26,7 C 1,2 C 35 % 37 % 32 % 1024,2 hPa 0,0 l/m 3,7 km/h (1 Bft) NO 45 0 min 0,1 UV-I 8,9 C 26,7 C 6,0 km/h (2 Bft)
10.05.2011 19:00 25,6 C 18,4 C 24,1 C 27,0 C 27,0 C 1,4 C 34 % 38 % 37 % 1024,2 hPa 0,0 l/m 3,5 km/h (1 Bft) NO 45 0 min 0,1 UV-I 8,6 C 27,0 C 3,2 km/h (1 Bft)
10.05.2011 19:10 25,3 C 18,4 C 24,3 C 26,9 C 26,9 C 1,6 C 35 % 38 % 42 % 1024,2 hPa 0,0 l/m 4,8 km/h (1 Bft) N 0 0 min 0,1 UV-I 8,7 C 26,9 C 7,2 km/h (2 Bft)
10.05.2011 19:15 25,3 C 18,4 C 24,4 C 26,8 C 26,8 C 1,5 C 35 % 38 % 39 % 1024,4 hPa 0,0 l/m 4,2 km/h (1 Bft) NO 45 0 min 0,0 UV-I 8,7 C 26,8 C 4,5 km/h (1 Bft)
10.05.2011 19:20 25,2 C 18,4 C 24,7 C 26,7 C 26,7 C 1,5 C 35 % 37 % 39 % 1024,4 hPa 0,0 l/m 4,0 km/h (1 Bft) O-NO 67 0 min 0,0 UV-I 8,6 C 26,7 C 3,4 km/h (1 Bft)
10.05.2011 19:25 25,1 C 18,4 C 24,5 C 26,4 C 26,4 C 1,3 C 35 % 37 % 34 % 1024,4 hPa 0,0 l/m 4,8 km/h (1 Bft) NO 45 0 min 0,0 UV-I 8,6 C 26,4 C 8,7 km/h (2 Bft)
10.05.2011 19:30 25,0 C 18,4 C 24,3 C 26,1 C 26,1 C 1,1 C 36 % 38 % 29 % 1024,4 hPa 0,0 l/m 4,8 km/h (1 Bft) NO 45 0 min 0,0 UV-I 8,9 C 26,1 C 3,4 km/h (1 Bft)
10.05.2011 19:35 24,9 C 18,4 C 24,1 C 25,8 C 25,8 C 0,9 C 37 % 39 % 24 % 1024,3 hPa 0,0 l/m 4,8 km/h (1 Bft) NO 45 0 min 0,0 UV-I 9,2 C 25,8 C 2,7 km/h (1 Bft)
10.05.2011 19:40 24,7 C 18,4 C 24,0 C 25,5 C 25,5 C 0,8 C 38 % 40 % 21 % 1024,3 hPa 0,0 l/m 3,9 km/h (1 Bft) N-NO 22 0 min 0,0 UV-I 9,4 C 25,5 C 3,4 km/h (1 Bft)
10.05.2011 19:45 24,4 C 18,4 C 23,6 C 25,1 C 25,1 C 0,7 C 38 % 42 % 18 % 1024,3 hPa 0,0 l/m 2,9 km/h (1 Bft) O-NO 67 0 min 0,0 UV-I 9,2 C 25,1 C 1,6 km/h (1 Bft)
10.05.2011 19:50 24,3 C 18,4 C 23,1 C 24,9 C 24,9 C 0,6 C 39 % 43 % 16 % 1024,3 hPa 0,0 l/m 2,7 km/h (1 Bft) O-NO 67 0 min 0,0 UV-I 9,4 C 24,9 C 4,5 km/h (1 Bft)
10.05.2011 19:55 23,9 C 18,4 C 22,7 C 24,1 C 24,1 C 0,2 C 39 % 43 % 5 % 1024,6 hPa 0,0 l/m 2,9 km/h (1 Bft) O-NO 67 0 min 0,0 UV-I 9,1 C 24,1 C 4,3 km/h (1 Bft)
10.05.2011 20:00 23,7 C 18,4 C 22,5 C 23,7 C 23,6 C 0,0 C 39 % 43 % 0 % 1024,6 hPa 0,0 l/m 3,9 km/h (1 Bft) O-NO 67 0 min 0,0 UV-I 8,9 C 23,6 C 5,0 km/h (1 Bft)
10.05.2011 20:10 23,1 C 18,4 C 21,9 C 22,8 C 22,2 C 0,0 C 41 % 44 % 0 % 1024,6 hPa 0,0 l/m 3,5 km/h (1 Bft) N 0 0 min 0,0 UV-I 9,1 C 22,2 C 3,1 km/h (1 Bft)
10.05.2011 20:15 22,8 C 18,4 C 21,5 C 22,4 C 21,5 C 0,0 C 42 % 46 % 0 % 1024,3 hPa 0,0 l/m 2,4 km/h (1 Bft) O-NO 67 0 min 0,0 UV-I 9,2 C 21,5 C 2,9 km/h (1 Bft)
10.05.2011 20:20 22,6 C 18,4 C 21,2 C 22,1 C 21,2 C 0,0 C 43 % 47 % 0 % 1024,3 hPa 0,0 l/m 2,6 km/h (1 Bft) NO 45 0 min 0,0 UV-I 9,4 C 21,2 C 3,4 km/h (1 Bft)
10.05.2011 20:25 22,2 C 18,4 C 21,1 C 21,7 C 20,6 C 0,0 C 43 % 48 % 0 % 1024,3 hPa 0,0 l/m 3,1 km/h (1 Bft) NO 45 0 min 0,0 UV-I 9,0 C 20,6 C 4,7 km/h (1 Bft)
10.05.2011 20:30 22,0 C 18,4 C 20,8 C 21,5 C 20,5 C 0,0 C 44 % 47 % 0 % 1024,3 hPa 0,0 l/m 3,4 km/h (1 Bft) O-NO 67 0 min 0,0 UV-I 9,2 C 20,5 C 3,1 km/h (1 Bft)
10.05.2011 20:35 21,6 C 18,4 C 20,7 C 21,1 C 20,1 C 0,0 C 44 % 48 % 0 % 1024,2 hPa 0,0 l/m 3,2 km/h (1 Bft) O-NO 67 0 min 0,0 UV-I 8,8 C 20,1 C 2,9 km/h (1 Bft)
10.05.2011 20:40 21,5 C 18,4 C 20,4 C 20,9 C 19,8 C 0,0 C 44 % 48 % 0 % 1024,2 hPa 0,0 l/m 3,1 km/h (1 Bft) NO 45 0 min 0,0 UV-I 8,7 C 19,8 C 2,1 km/h (1 Bft)
10.05.2011 20:45 21,3 C 18,4 C 20,1 C 20,6 C 19,2 C 0,0 C 44 % 48 % 0 % 1024,2 hPa 0,0 l/m 1,6 km/h (1 Bft) NO 45 0 min 0,0 UV-I 8,5 C 19,2 C 1,9 km/h (1 Bft)
10.05.2011 20:50 21,1 C 18,4 C 19,9 C 20,4 C 18,9 C 0,0 C 44 % 49 % 0 % 1024,2 hPa 0,0 l/m 0,6 km/h (0 Bft) NO 45 0 min 0,0 UV-I 8,4 C 18,9 C 0,0 km/h (0 Bft)
10.05.2011 20:55 20,9 C 18,4 C 19,5 C 20,1 C 18,5 C 0,0 C 45 % 50 % 0 % 1024,4 hPa 0,0 l/m 0,8 km/h (0 Bft) O-NO 67 0 min 0,0 UV-I 8,5 C 18,5 C 1,8 km/h (1 Bft)
10.05.2011 21:00 20,9 C 18,4 C 19,3 C 20,0 C 18,2 C 0,0 C 46 % 52 % 0 % 1024,4 hPa 0,0 l/m 0,8 km/h (0 Bft) O 90 0 min 0,0 UV-I 8,8 C 18,2 C 0,0 km/h (0 Bft)
10.05.2011 21:10 20,7 C 18,4 C 18,8 C 19,6 C 17,3 C 0,0 C 48 % 53 % 0 % 1024,4 hPa 0,0 l/m 0,0 km/h (0 Bft) N 0 0 min 0,0 UV-I 9,3 C 17,3 C 0,0 km/h (0 Bft)
10.05.2011 21:15 20,6 C 18,4 C 18,5 C 19,3 C 16,8 C 0,0 C 49 % 56 % 0 % 1024,4 hPa 0,0 l/m 0,0 km/h (0 Bft) W-SW 247 0 min 0,0 UV-I 9,5 C 16,8 C 0,0 km/h (0 Bft)
10.05.2011 21:20 20,5 C 18,4 C 18,4 C 19,1 C 16,4 C 0,0 C 50 % 57 % 0 % 1024,4 hPa 0,0 l/m 0,0 km/h (0 Bft) W-SW 247 0 min 0,0 UV-I 9,7 C 16,4 C 0,0 km/h (0 Bft)
10.05.2011 21:25 20,4 C 18,4 C 18,1 C 19,0 C 16,1 C 0,0 C 51 % 58 % 0 % 1024,4 hPa 0,0 l/m 0,0 km/h (0 Bft) SW 225 0 min 0,0 UV-I 9,9 C 16,1 C 0,0 km/h (0 Bft)
10.05.2011 21:30 20,3 C 18,4 C 17,9 C 18,8 C 15,9 C 0,0 C 52 % 60 % 0 % 1024,4 hPa 0,0 l/m 0,0 km/h (0 Bft) SW 225 0 min 0,0 UV-I 10,1 C 15,9 C 0,0 km/h (0 Bft)
10.05.2011 21:35 20,0 C 18,4 C 17,6 C 18,5 C 15,6 C 0,0 C 53 % 60 % 0 % 1024,3 hPa 0,0 l/m 0,0 km/h (0 Bft) NW 315 0 min 0,0 UV-I 10,1 C 15,6 C 0,0 km/h (0 Bft)
10.05.2011 21:40 19,9 C 18,4 C 17,4 C 18,4 C 15,5 C 0,0 C 53 % 60 % 0 % 1024,3 hPa 0,0 l/m 0,0 km/h (0 Bft) NW 315 0 min 0,0 UV-I 10,0 C 15,5 C 0,0 km/h (0 Bft)
10.05.2011 21:45 19,6 C 18,4 C 17,2 C 18,1 C 15,2 C 0,0 C 54 % 61 % 0 % 1024,3 hPa 0,0 l/m 0,0 km/h (0 Bft) SW 225 0 min 0,0 UV-I 10,0 C 15,2 C 0,0 km/h (0 Bft)
10.05.2011 21:50 19,4 C 18,4 C 16,9 C 17,9 C 15,0 C 0,0 C 55 % 62 % 0 % 1024,3 hPa 0,0 l/m 0,0 km/h (0 Bft) SW 225 0 min 0,0 UV-I 10,1 C 15,0 C 0,0 km/h (0 Bft)
10.05.2011 21:55 19,3 C 18,4 C 16,8 C 17,8 C 14,7 C 0,0 C 56 % 63 % 0 % 1024,4 hPa 0,0 l/m 0,0 km/h (0 Bft) SW 225 0 min 0,0 UV-I 10,3 C 14,7 C 0,0 km/h (0 Bft)
10.05.2011 22:00 19,3 C 18,4 C 16,7 C 17,7 C 14,6 C 0,0 C 57 % 64 % 0 % 1024,4 hPa 0,0 l/m 0,2 km/h (0 Bft) SW 225 0 min 0,0 UV-I 10,6 C 14,6 C 0,0 km/h (0 Bft)
10.05.2011 22:10 18,7 C 18,4 C 16,3 C 17,2 C 14,3 C 0,0 C 57 % 65 % 0 % 1024,4 hPa 0,0 l/m 0,0 km/h (0 Bft) N 0 0 min 0,0 UV-I 10,0 C 14,3 C 0,0 km/h (0 Bft)
10.05.2011 22:15 18,3 C 18,4 C 16,1 C 16,9 C 14,1 C 0,0 C 58 % 66 % 0 % 1024,4 hPa 0,0 l/m 0,0 km/h (0 Bft) NW 315 0 min 0,0 UV-I 9,9 C 14,1 C 0,0 km/h (0 Bft)
10.05.2011 22:20 18,3 C 18,4 C 15,9 C 16,8 C 13,9 C 0,0 C 59 % 67 % 0 % 1024,4 hPa 0,0 l/m 0,0 km/h (0 Bft) W 270 0 min 0,0 UV-I 10,1 C 13,9 C 0,0 km/h (0 Bft)
10.05.2011 22:25 18,0 C 18,4 C 15,9 C 16,6 C 13,8 C 0,0 C 59 % 67 % 0 % 1024,4 hPa 0,0 l/m 0,0 km/h (0 Bft) O-NO 67 0 min 0,0 UV-I 9,9 C 13,8 C 0,0 km/h (0 Bft)
10.05.2011 22:30 17,8 C 18,4 C 15,7 C 16,4 C 13,7 C 0,0 C 59 % 67 % 0 % 1024,4 hPa 0,0 l/m 0,0 km/h (0 Bft) N-NO 22 0 min 0,0 UV-I 9,7 C 13,7 C 0,0 km/h (0 Bft)
10.05.2011 22:35 17,7 C 18,4 C 15,5 C 16,3 C 13,6 C 0,0 C 60 % 68 % 0 % 1024,4 hPa 0,0 l/m 0,0 km/h (0 Bft) S 180 0 min 0,0 UV-I 9,8 C 13,6 C 2,3 km/h (1 Bft)
10.05.2011 22:40 17,8 C 18,4 C 15,5 C 16,4 C 13,5 C 0,0 C 60 % 68 % 0 % 1024,4 hPa 0,0 l/m 0,2 km/h (0 Bft) W-SW 247 0 min 0,0 UV-I 9,9 C 13,5 C 0,0 km/h (0 Bft)
10.05.2011 22:45 17,6 C 18,4 C 15,3 C 16,2 C 13,3 C 0,0 C 60 % 68 % 0 % 1024,4 hPa 0,0 l/m 0,2 km/h (0 Bft) N-NW 337 0 min 0,0 UV-I 9,7 C 13,3 C 0,0 km/h (0 Bft)
10.05.2011 22:50 17,6 C 18,4 C 15,2 C 16,1 C 13,2 C 0,0 C 60 % 68 % 0 % 1024,4 hPa 0,0 l/m 0,0 km/h (0 Bft) N-NW 337 0 min 0,0 UV-I 9,7 C 13,2 C 0,0 km/h (0 Bft)
10.05.2011 22:55 17,5 C 18,4 C 15,1 C 16,0 C 13,0 C 0,0 C 61 % 69 % 0 % 1024,4 hPa 0,0 l/m 0,0 km/h (0 Bft) W-SW 247 0 min 0,0 UV-I 9,9 C 13,0 C 0,0 km/h (0 Bft)
10.05.2011 23:00 17,5 C 18,4 C 15,1 C 16,0 C 12,9 C 0,0 C 61 % 69 % 0 % 1024,4 hPa 0,0 l/m 0,0 km/h (0 Bft) S 180 0 min 0,0 UV-I 9,9 C 12,9 C 0,0 km/h (0 Bft)
10.05.2011 23:10 17,2 C 18,9 C 14,8 C 15,7 C 12,7 C 0,0 C 61 % 69 % 0 % 1024,4 hPa 0,0 l/m 0,0 km/h (0 Bft) N 0 0 min 0,0 UV-I 9,6 C 12,7 C 0,0 km/h (0 Bft)
10.05.2011 23:15 16,6 C 18,9 C 14,6 C 15,3 C 12,7 C 0,0 C 62 % 69 % 0 % 1024,2 hPa 0,0 l/m 0,0 km/h (0 Bft) O-NO 67 0 min 0,0 UV-I 9,3 C 12,7 C 0,0 km/h (0 Bft)
10.05.2011 23:20 16,7 C 18,9 C 14,5 C 15,3 C 12,6 C 0,0 C 62 % 71 % 0 % 1024,2 hPa 0,0 l/m 0,0 km/h (0 Bft) O-NO 67 0 min 0,0 UV-I 9,4 C 12,6 C 0,0 km/h (0 Bft)
10.05.2011 23:25 16,7 C 18,9 C 14,5 C 15,3 C 12,4 C 0,0 C 63 % 71 % 0 % 1024,2 hPa 0,0 l/m 0,0 km/h (0 Bft) SW 225 0 min 0,0 UV-I 9,6 C 12,4 C 0,0 km/h (0 Bft)
10.05.2011 23:30 16,7 C 18,9 C 14,4 C 15,2 C 12,3 C 0,0 C 63 % 72 % 0 % 1024,2 hPa 0,0 l/m 0,0 km/h (0 Bft) S-SW 202 0 min 0,0 UV-I 9,6 C 12,3 C 0,0 km/h (0 Bft)
10.05.2011 23:35 16,5 C 18,9 C 14,2 C 15,1 C 12,2 C 0,0 C 63 % 71 % 0 % 1024,3 hPa 0,0 l/m 0,0 km/h (0 Bft) SW 225 0 min 0,0 UV-I 9,4 C 12,2 C 0,0 km/h (0 Bft)
10.05.2011 23:40 16,3 C 18,9 C 14,1 C 14,9 C 12,1 C 0,0 C 63 % 71 % 0 % 1024,3 hPa 0,0 l/m 0,0 km/h (0 Bft) SW 225 0 min 0,0 UV-I 9,2 C 12,1 C 0,0 km/h (0 Bft)
10.05.2011 23:45 15,9 C 18,9 C 13,8 C 14,6 C 12,0 C 0,0 C 63 % 72 % 0 % 1024,3 hPa 0,0 l/m 0,0 km/h (0 Bft) SW 225 0 min 0,0 UV-I 8,9 C 12,0 C 0,0 km/h (0 Bft)
10.05.2011 23:50 15,8 C 18,9 C 13,7 C 14,5 C 11,9 C 0,0 C 64 % 72 % 0 % 1024,3 hPa 0,0 l/m 0,0 km/h (0 Bft) SW 225 0 min 0,0 UV-I 9,0 C 11,9 C 0,0 km/h (0 Bft)
10.05.2011 23:55 16,0 C 18,7 C 13,8 C 14,6 C 11,7 C 0,0 C 64 % 73 % 0 % 1024,8 hPa 0,0 l/m 0,0 km/h (0 Bft) W 270 0 min 0,0 UV-I 9,2 C 11,7 C 0,0 km/h (0 Bft)
_ Min-Zeit 06:10 10:35 05:30 05:30 05:45 00:00 17:00 15:00 00:00 18:55 - 00:00 - - - 00:00 05:30 05:45 00:00
Minimum _ 7,6 C 15,8 C 6,0 C 6,3 C 3,5 C 0,0 C 27 % 28 % 0 % 1024,2 hPa - 0,0 km/h (0 Bft) - - - 0,0 UV-I 3,4 C 3,5 C 0,0 km/h (0 Bft)
_ Max-Zeit 16:50 23:10 15:15 15:35 15:35 09:15 06:10 06:20 07:50 08:35 00:00 14:00 - - 08:10 12:35 22:00 15:35 13:10
Maximum _ 27,1 C 18,9 C 27,7 C 32,2 C 32,2 C 10,2 C 76 % 84 % 100 % 1028,4 hPa 0,0 l/m 7,2 km/h
O-NO (2 Bft)
- - 10 min 3,6 UV-I 10,6 C 32,2 C 18,0 km/h
N (3 Bft)
Durchschnitt _ 18,3 C 17,0 C 16,5 C 19,9 C 18,5 C 2,2 C 50 % 57 % 44 % 1026,4 hPa #0,0 l/m 1,5 km/h (1 Bft) O-NO - #8:30 h 1,4 UV-I 6,8 C 18,5 C 2,2 km/h (1 Bft)
2013 www.wetterstation-wechselburg.de